User: anonymous   Login
Location: Unspecified
(0.0000°N, 0.0000°E)
Time: 05:14:49
(UTC+00:00)
Language:

XW-2B - Orbit

View from above orbital plane
View from above orbital plane
View from above satellite
View from above satellite

Ground track
Ground track

The orbit data is extracted from the following two-line orbital elements,

1 40911U 15049N   18018.83787658  .00000602  00000-0  35618-4 0  9999
2 40911  97.4588  25.3046 0014319 179.6244 180.5001 15.15063803128782
Epoch (UTC): 18 January 2018 20:06:32
Eccentricity: 0.0014319
inclination: 97.4588°
perigee height: 511 km
apogee height: 530 km
right ascension of ascending node: 25.3046°
argument of perigee: 179.6244°
revolutions per day: 15.15063803
mean anomaly at epoch: 180.5001°
orbit number at epoch: 12878

The dashed part of the orbit path shows where the satellite is in the earth's shadow,  

DLR